Logansport, IN

12:55 AM EDT on August 30, 2016 (GMT -0400)
Logansport Municipal

Weather History for KGGP - July, 2013

Change the Weather History Date:

Sunday, July 28, 2013

  Actual Average Record
Temperature  
Mean Temperature 58 °F -  
Max Temperature 69 °F 83 °F 89 °F (2015)
Min Temperature 46 °F 63 °F 46 °F (2013)
Degree Days  
Heating Degree Days 8    
Growing Degree Days 8 (Base 50)    
Moisture  
Dew Point 49 °F    
Average Humidity 73    
Maximum Humidity 100    
Minimum Humidity 46    
Precipitation  
Precipitation 0.00 in - - ()
Sea Level Pressure  
Sea Level Pressure 29.97 in    
Wind  
Wind Speed 6 mph (WSW)    
Max Wind Speed 18 mph    
Max Gust Speed 30 mph    
Visibility 10 miles    
Events      
Averages and records for this station are not official NWS values.
T = Trace of Precipitation, MM = Missing Value Source: NWS Daily Summary

Daily Weather History Graph

Daily Weather History Graph

Search for Another Location

Airport or City:

Trip Planner

Search our weather history database for the weather conditions in past years. The results will help you decide how hot, cold, wet, or windy it might be!

Date:

Astronomy

Jul. 28, 2013 Rise Set
Actual Time 6:38 AM EDT 9:04 PM EDT
Civil Twilight 6:07 AM EDT 9:35 PM EDT
Nautical Twilight 5:28 AM EDT 10:14 PM EDT
Astronomical Twilight 4:45 AM EDT 10:56 PM EDT
Moon No Moon Rise 1:23 PM EDT (7/28)
Length of Visible Light 15h 28m
Length of Day
14h 26m
Waning Gibbous, 61% of the Moon is Illuminated
Jul 28
Waning Gibbous
Jul 29
Last Quarter
Aug 6
New
Aug 14
First Quarter
Aug 20
Full

Hourly Weather History & Observations

Time (EDT) Temp. Windchill Dew Point Humidity Pressure Visibility Wind Dir Wind Speed Gust Speed Precip Events Conditions
12:15 AM 53.6 °F - 51.8 °F 94% 29.94 in 10.0 mi West 3.5 mph - N/A   Mostly Cloudy
12:35 AM 53.6 °F - 50.0 °F 88% 29.94 in 10.0 mi Calm Calm - N/A   Mostly Cloudy
12:55 AM 51.8 °F - 50.0 °F 94% 29.94 in 10.0 mi WSW 3.5 mph - N/A   Overcast
1:15 AM 51.8 °F - 50.0 °F 94% 29.95 in 10.0 mi West 3.5 mph - N/A   Mostly Cloudy
1:35 AM 51.8 °F - 50.0 °F 94% 29.94 in 10.0 mi WSW 8.1 mph - N/A   Mostly Cloudy
1:55 AM 51.8 °F - 48.2 °F 88% 29.94 in 10.0 mi WSW 4.6 mph - N/A   Scattered Clouds
2:15 AM 50.0 °F - 46.4 °F 87% 29.94 in 10.0 mi West 5.8 mph - N/A   Clear
2:35 AM 50.0 °F - 46.4 °F 87% 29.94 in 10.0 mi West 6.9 mph - N/A   Clear
2:55 AM 50.0 °F - 46.4 °F 87% 29.94 in 10.0 mi West 4.6 mph - N/A   Clear
3:15 AM 50.0 °F - 46.4 °F 87% 29.93 in 10.0 mi WSW 5.8 mph - N/A   Mostly Cloudy
3:35 AM 50.0 °F - 46.4 °F 87% 29.94 in 10.0 mi SW 3.5 mph - N/A   Mostly Cloudy
3:55 AM 48.2 °F - 46.4 °F 93% 29.93 in 10.0 mi SSW 3.5 mph - N/A   Scattered Clouds
4:15 AM 50.0 °F - 46.4 °F 87% 29.93 in 10.0 mi SSW 5.8 mph - N/A   Clear
4:35 AM 48.2 °F - 46.4 °F 93% 29.92 in 10.0 mi SSW 5.8 mph - N/A   Clear
4:55 AM 48.2 °F - 46.4 °F 93% 29.92 in 10.0 mi SW 5.8 mph - N/A   Scattered Clouds
5:15 AM 48.2 °F - 46.4 °F 93% 29.93 in 10.0 mi WSW 5.8 mph - N/A   Clear
5:35 AM 46.4 °F 44.3 °F 44.6 °F 93% 29.93 in 10.0 mi SW 4.6 mph - N/A   Clear
5:55 AM 46.4 °F 43.5 °F 44.6 °F 93% 29.94 in 10.0 mi SW 5.8 mph - N/A   Clear
6:15 AM 46.4 °F 44.3 °F 44.6 °F 93% 29.94 in 10.0 mi SW 4.6 mph - N/A   Clear
6:35 AM 46.4 °F 45.2 °F 44.6 °F 93% 29.95 in 10.0 mi WSW 3.5 mph - N/A   Clear
6:55 AM 46.4 °F 45.2 °F 44.6 °F 93% 29.96 in 10.0 mi SSW 3.5 mph - N/A   Clear
7:15 AM 46.4 °F 44.3 °F 46.4 °F 100% 29.96 in 10.0 mi SW 4.6 mph - N/A   Clear
7:35 AM 48.2 °F - 46.4 °F 93% 29.96 in 10.0 mi SW 3.5 mph - N/A   Clear
7:55 AM 50.0 °F - 48.2 °F 94% 29.96 in 10.0 mi WSW 4.6 mph - N/A   Scattered Clouds
8:15 AM 51.8 °F - 50.0 °F 94% 29.97 in 10.0 mi WSW 6.9 mph - N/A   Mostly Cloudy
8:35 AM 53.6 °F - 50.0 °F 88% 29.97 in 10.0 mi WSW 8.1 mph - N/A   Overcast
8:55 AM 55.4 °F - 50.0 °F 82% 29.97 in 10.0 mi SW 8.1 mph - N/A   Mostly Cloudy
9:15 AM 55.4 °F - 50.0 °F 82% 29.97 in 10.0 mi West 6.9 mph - N/A   Overcast
9:35 AM 57.2 °F - 50.0 °F 77% 29.96 in 10.0 mi WSW 6.9 mph - N/A   Overcast
9:55 AM 59.0 °F - 50.0 °F 72% 29.96 in 10.0 mi WSW 8.1 mph - N/A   Overcast
10:15 AM 59.0 °F - 50.0 °F 72% 29.96 in 10.0 mi WSW 8.1 mph - N/A   Overcast
10:35 AM 62.6 °F - 48.2 °F 59% 29.96 in 10.0 mi WSW 9.2 mph - N/A   Mostly Cloudy
10:55 AM 64.4 °F - 50.0 °F 59% 29.96 in 10.0 mi WSW 11.5 mph - N/A   Mostly Cloudy
11:15 AM 62.6 °F - 48.2 °F 59% 29.96 in 10.0 mi WSW 13.8 mph 18.4 mph N/A   Overcast
11:35 AM 64.4 °F - 50.0 °F 59% 29.96 in 10.0 mi WSW 13.8 mph 18.4 mph N/A   Overcast
11:55 AM 66.2 °F - 50.0 °F 56% 29.96 in 10.0 mi WSW 18.4 mph 21.9 mph N/A   Overcast
12:15 PM 68.0 °F - 50.0 °F 52% 29.96 in 10.0 mi West 18.4 mph 25.3 mph N/A   Mostly Cloudy
12:35 PM 68.0 °F - 50.0 °F 52% 29.95 in 10.0 mi West 17.3 mph 25.3 mph N/A   Scattered Clouds
12:55 PM 69.8 °F - 50.0 °F 49% 29.95 in 10.0 mi West 16.1 mph 29.9 mph N/A   Scattered Clouds
1:15 PM 68.0 °F - 50.0 °F 52% 29.95 in 10.0 mi West 16.1 mph 21.9 mph N/A   Overcast
1:35 PM 68.0 °F - 50.0 °F 52% 29.95 in 10.0 mi West 16.1 mph 25.3 mph N/A   Overcast
1:55 PM 64.4 °F - 48.2 °F 56% 29.95 in 10.0 mi West 12.7 mph 23.0 mph N/A   Overcast
2:15 PM 64.4 °F - 50.0 °F 59% 29.96 in 10.0 mi West 11.5 mph 21.9 mph N/A   Overcast
2:35 PM 64.4 °F - 50.0 °F 59% 29.96 in 10.0 mi West 9.2 mph 17.3 mph N/A   Overcast
2:55 PM 64.4 °F - 50.0 °F 59% 29.96 in 10.0 mi WNW 8.1 mph - N/A   Overcast
3:15 PM 66.2 °F - 51.8 °F 60% 29.96 in 10.0 mi West 8.1 mph - N/A   Overcast
3:35 PM 68.0 °F - 51.8 °F 56% 29.96 in 10.0 mi West 13.8 mph 17.3 mph N/A   Overcast
3:55 PM 68.0 °F - 51.8 °F 56% 29.96 in 10.0 mi West 12.7 mph 18.4 mph N/A   Overcast
4:15 PM 69.8 °F - 50.0 °F 49% 29.96 in 10.0 mi West 13.8 mph 21.9 mph N/A   Overcast
4:35 PM 68.0 °F - 50.0 °F 52% 29.97 in 10.0 mi WNW 9.2 mph 19.6 mph N/A   Overcast
4:55 PM 68.0 °F - 48.2 °F 49% 29.97 in 10.0 mi West 11.5 mph 18.4 mph N/A   Overcast
5:15 PM 68.0 °F - 48.2 °F 49% 29.98 in 10.0 mi WNW 8.1 mph 17.3 mph N/A   Overcast
5:35 PM 69.8 °F - 48.2 °F 46% 29.98 in 10.0 mi West 11.5 mph 21.9 mph N/A   Mostly Cloudy
5:55 PM 68.0 °F - 46.4 °F 46% 29.98 in 10.0 mi WNW 11.5 mph - N/A   Mostly Cloudy
6:15 PM 69.8 °F - 48.2 °F 46% 29.98 in 10.0 mi WNW 5.8 mph - N/A   Mostly Cloudy
6:35 PM 68.0 °F - 48.2 °F 49% 29.99 in 10.0 mi WNW 9.2 mph - N/A   Mostly Cloudy
6:55 PM 68.0 °F - 46.4 °F 46% 29.99 in 10.0 mi West 6.9 mph - N/A   Mostly Cloudy
7:15 PM 68.0 °F - 46.4 °F 46% 29.99 in 10.0 mi West 8.1 mph - N/A   Mostly Cloudy
7:35 PM 68.0 °F - 48.2 °F 49% 30.00 in 10.0 mi West 4.6 mph - N/A   Scattered Clouds
7:55 PM 66.2 °F - 48.2 °F 52% 30.01 in 10.0 mi WNW 4.6 mph - N/A   Scattered Clouds
8:15 PM 64.4 °F - 46.4 °F 52% 30.02 in 10.0 mi WNW 5.8 mph - N/A   Scattered Clouds
8:35 PM 62.6 °F - 48.2 °F 59% 30.02 in 10.0 mi WNW 3.5 mph - N/A   Scattered Clouds
8:55 PM 60.8 °F - 48.2 °F 63% 30.03 in 10.0 mi NW 3.5 mph - N/A   Mostly Cloudy
9:15 PM 59.0 °F - 50.0 °F 72% 30.03 in 10.0 mi Calm Calm - N/A   Scattered Clouds
9:35 PM 55.4 °F - 50.0 °F 82% 30.03 in 10.0 mi West 3.5 mph - N/A   Scattered Clouds
9:55 PM 55.4 °F - 50.0 °F 82% 30.04 in 10.0 mi Calm Calm - N/A   Scattered Clouds
10:15 PM 55.4 °F - 50.0 °F 82% 30.04 in 10.0 mi West 3.5 mph - N/A   Clear
10:35 PM 53.6 °F - 50.0 °F 88% 30.05 in 10.0 mi Calm Calm - N/A   Clear
10:55 PM 53.6 °F - 50.0 °F 88% 30.05 in 10.0 mi Calm Calm - N/A   Clear
11:15 PM 51.8 °F - 50.0 °F 94% 30.05 in 10.0 mi Calm Calm - N/A   Clear
11:35 PM 51.8 °F - 50.0 °F 94% 30.05 in 10.0 mi SSW 3.5 mph - N/A   Clear
11:55 PM 51.8 °F - 48.2 °F 88% 30.05 in 10.0 mi SSW 3.5 mph - N/A   Clear